GFSNGP_prec_cthk_078.txt.gz
RH
53 46 47 53 55 58 58 57 60 54 57 52 47 49 50 50 52 45 43 40 45 42 38 39 39 39 38 34 37 38 39 41 44 53 64 69 72 73 61 57 59 66 79 87
58 51 52 54 53 56 57 59 59 58 55 53 50 50 51 50 55 49 47 45 43 47 44 42 44 45 43 40 41 42 37 39 40 43 53 65 70 66 61 54 53 56 63 72
74 61 58 65 50 53 55 55 56 61 58 57 54 50 45 46 52 55 54 53 49 52 50 50 48 48 46 44 44 46 38 35 44 44 53 59 59 56 52 50 52 52 56 63
91 81 85 54 53 58 62 59 58 58 61 62 57 55 42 38 41 47 51 56 54 50 46 48 50 48 47 47 46 45 44 40 42 45 49 54 56 54 52 55 50 51 57 62
96 92 76 62 61 64 66 58 59 57 65 66 63 56 51 43 41 42 42 47 48 50 43 45 50 50 50 49 49 47 45 41 42 46 51 56 63 60 58 57 60 63 67 69
99 90 96 71 66 61 62 65 56 65 64 67 66 62 56 51 46 39 43 45 47 44 42 46 48 52 52 50 49 48 45 44 47 52 56 60 55 52 60 63 67 71 72 70
89 85 76 63 66 69 73 64 59 67 69 72 70 64 60 52 47 40 39 42 41 41 43 44 48 49 50 49 49 51 48 51 54 57 57 56 58 63 66 70 70 71 72 73
86 84 77 55 60 75 76 66 65 69 75 75 75 70 64 55 52 49 43 44 44 45 51 54 55 51 50 54 56 55 55 58 59 60 62 64 69 69 68 68 70 73 76 78
72 69 60 62 71 66 71 77 68 68 78 78 75 79 71 65 55 55 54 53 53 51 50 52 55 55 56 61 64 63 61 62 64 65 68 70 70 72 72 72 73 78 82 83
56 49 61 64 55 56 76 70 68 65 67 76 77 75 73 68 63 62 61 62 65 63 59 61 65 68 67 70 71 70 69 75 76 75 75 76 76 77 79 81 82 82 83 84
50 49 49 55 60 63 72 69 67 65 62 65 71 76 76 75 72 71 73 76 77 76 74 74 75 79 79 76 76 79 80 80 81 80 80 83 86 88 91 92 93 95 97 98
55 52 58 60 62 61 58 60 57 58 57 63 68 74 74 73 76 80 88 79 91 85 87 81 82 84 85 85 85 85 84 86 88 86 88 90 94 98 97 97 94 90 93 97
57 57 49 56 64 61 62 63 64 56 56 53 62 73 74 74 78 81 81 83 93 95 91 90 91 92 93 91 89 89 91 92 91 89 90 93 93 92 90 92 86 83 86 85
63 66 57 58 71 68 64 72 67 66 73 66 65 79 82 80 86 86 84 92 95 95 93 91 94 95 98 99 97 94 95 93 91 93 93 88 87 87 82 79 82 84 85 88
67 78 78 68 67 74 73 76 73 67 69 66 75 81 79 78 77 77 79 80 90 94 98 94 96 97 96 93 93 95 95 91 88 85 83 83 81 79 78 81 86 91 93 93
79 78 82 84 77 78 77 77 82 77 72 78 78 80 79 75 67 66 72 77 88 94 93 93 94 94 91 91 91 90 89 85 83 81 80 79 81 89 94 95 96 96 95 95
85 85 86 91 90 88 86 88 85 84 83 85 80 77 79 75 72 77 74 78 81 80 80 81 81 82 83 82 81 81 83 82 83 85 86 91 96 95 95 95 96 96 96 96
88 92 88 89 90 92 88 87 82 79 77 77 78 78 76 69 66 74 81 77 77 76 81 83 82 78 79 85 85 87 93 97 96 96 96 95 95 95 95 95 95 93 89 82
86 94 95 96 97 97 94 90 88 87 85 85 83 79 77 72 68 69 77 80 81 79 82 86 90 92 93 95 96 96 96 96 96 96 94 92 89 86 81 73 65 58 52 48
86 93 91 97 98 99 98 97 93 89 88 86 84 82 78 79 80 80 81 80 80 80 81 88 89 94 96 96 96 96 94 92 89 85 79 69 59 51 46 42 38 36 35 34
94 94 88 85 94 98 96 95 89 87 86 84 82 86 88 88 89 89 89 91 94 95 96 97 96 96 96 94 90 85 78 67 56 48 44 40 37 34 33 31 30 30 29 29
94 89 87 88 85 91 95 96 94 93 94 91 90 94 94 92 95 96 97 97 97 97 97 96 93 87 79 68 59 51 45 41 38 35 33 32 31 30 28 28 26 25 23 22
92 91 91 90 89 92 94 96 97 97 95 94 93 94 95 95 97 97 97 97 97 93 85 74 64 56 50 44 40 38 36 34 33 31 29 28 27 25 23 21 20 20 21 23
91 86 85 87 87 91 96 97 98 97 97 97 97 97 97 97 97 95 91 84 72 61 55 50 44 41 39 38 36 34 31 29 27 26 24 22 20 19 19 19 21 23 25 28
98 96 96 96 96 97 98 98 98 98 97 98 98 97 94 86 77 71 63 59 53 47 43 41 39 37 35 32 30 27 25 23 21 19 18 18 18 19 21 23 25 28 30 33
97 98 98 98 98 97 97 97 97 97 96 88 82 76 71 66 63 57 51 45 42 40 39 37 33 30 27 24 22 19 18 17 17 18 18 19 21 23 25 28 30 33 35 38
98 98 98 98 97 97 98 95 88 79 76 71 66 65 62 58 53 48 44 41 37 34 30 28 25 22 20 18 17 17 17 18 19 20 22 24 26 28 30 32 34 37 40 43

GFSNGP_prec_cthk_081.txt.gz
RH
73 69 63 49 48 52 54 49 53 46 50 49 46 51 46 49 47 52 51 48 47 43 44 44 41 41 40 41 40 41 42 42 44 48 50 56 59 67 72 73 71 66 63 63
75 72 73 61 48 46 50 52 53 54 53 52 48 52 51 52 54 52 53 51 47 40 43 44 48 48 46 42 42 44 44 39 38 42 43 47 55 62 71 77 77 67 59 58
68 68 86 74 41 45 47 50 51 52 48 50 49 49 53 54 58 52 53 52 50 46 39 42 45 48 47 45 48 45 45 45 42 43 44 47 53 63 70 71 70 65 64 59
84 91 97 72 55 47 47 47 50 50 50 53 51 50 51 51 53 54 53 54 48 47 43 42 42 44 45 49 51 52 49 48 48 46 47 45 48 56 62 63 64 62 59 61
95 97 93 83 75 68 60 56 57 57 55 55 54 50 53 58 58 53 53 52 51 51 54 52 48 49 49 48 52 53 50 50 50 48 47 51 50 52 57 61 63 60 61 57
95 93 88 76 76 77 70 67 65 67 64 62 56 58 64 72 63 54 50 47 47 48 50 52 52 49 52 51 52 53 54 57 57 50 47 53 59 60 61 61 59 58 59 64
80 84 77 65 64 70 74 75 72 73 70 66 70 68 71 72 66 59 53 54 50 48 48 52 50 48 52 55 56 56 60 58 57 53 53 57 59 61 64 64 68 71 74 79
86 92 87 74 71 81 80 73 76 77 74 69 68 78 77 75 72 63 61 60 57 51 51 52 51 51 53 57 62 62 63 63 63 62 60 60 61 63 66 72 74 77 78 80
85 84 76 76 72 74 79 78 76 76 82 74 72 85 81 81 79 73 67 68 67 56 55 56 61 66 65 64 64 62 64 66 67 67 67 66 67 74 76 77 77 78 80 81
62 68 62 53 60 63 71 69 72 78 76 71 74 79 78 82 82 86 81 77 73 69 68 68 69 75 76 74 73 72 72 73 74 79 79 80 82 82 82 82 83 84 87 89
49 43 43 47 52 57 61 66 65 57 67 64 66 72 73 77 88 91 89 84 82 77 79 83 80 79 80 82 80 78 77 81 85 82 82 86 86 88 89 90 91 95 98 98
50 51 49 42 44 50 59 62 61 62 62 65 60 63 67 75 85 89 90 90 90 89 91 89 87 83 83 87 88 87 84 85 85 90 91 90 92 94 92 94 96 98 94 95
59 56 52 46 45 47 59 57 61 65 69 69 63 61 61 70 77 84 87 90 94 94 94 98 93 92 95 98 99 97 97 95 95 98 99 97 98 97 97 97 96 95 95 93
66 61 56 58 57 54 56 67 69 70 75 77 75 68 69 70 76 82 82 88 88 91 95 99 95 98 99 98 99 98 98 98 94 92 95 96 98 96 92 90 87 86 84 82
74 69 61 58 61 66 63 72 79 80 84 86 84 77 72 77 78 76 75 79 81 84 91 90 97 98 98 98 96 97 98 97 95 95 94 92 89 87 85 83 82 81 82 84
77 73 70 67 69 76 73 69 77 88 88 84 85 81 80 82 83 76 76 79 82 84 84 85 92 94 97 97 92 92 96 97 94 91 89 87 86 86 86 87 90 91 90 90
74 69 71 74 74 81 85 84 84 85 88 91 89 86 90 86 83 80 78 79 81 87 85 78 91 92 83 89 93 92 91 91 87 87 89 90 91 90 94 94 93 91 89 86
83 73 74 77 80 82 88 92 94 91 95 97 93 88 88 84 82 81 82 79 74 74 79 86 83 84 87 87 86 89 90 94 96 96 96 96 95 93 90 85 78 70 62 55
80 77 76 79 87 92 93 92 94 97 97 98 95 93 91 90 88 85 82 80 80 77 74 75 83 87 89 87 89 90 91 91 95 94 89 83 76 69 62 55 48 43 38 36
80 81 75 76 88 96 95 96 98 98 98 98 93 94 93 90 87 86 84 83 85 87 86 86 88 89 86 85 86 89 89 86 79 70 62 56 49 44 40 37 35 33 31 30
87 84 84 83 86 94 96 97 97 97 97 98 96 94 90 90 90 89 90 91 93 94 92 91 93 96 94 87 79 71 63 56 52 47 43 40 38 36 34 32 30 28 27 26
93 92 91 91 94 95 96 92 91 92 92 94 97 96 95 95 96 95 95 96 97 96 97 93 83 74 66 60 54 51 46 42 40 38 37 35 33 31 29 27 25 23 19 18
96 96 92 95 98 97 95 93 91 93 95 97 97 97 97 97 97 97 97 97 94 83 73 65 59 54 53 48 45 43 40 38 36 35 32 30 27 26 23 20 18 18 19 21
96 97 97 98 98 97 94 92 92 92 93 95 97 97 97 97 97 94 82 73 66 59 55 55 52 48 46 44 42 39 37 34 31 28 26 24 20 18 17 18 19 21 23 26
97 97 98 98 98 97 96 96 95 96 96 96 97 97 92 84 75 71 65 59 57 55 52 48 46 45 42 39 37 34 30 27 24 20 18 17 18 19 20 22 24 26 28 29
98 98 98 98 98 98 98 98 98 98 97 89 83 77 73 68 64 59 56 53 48 46 44 42 39 36 33 30 27 24 21 18 17 17 18 19 21 22 24 26 28 29 32 34
98 97 97 97 98 98 98 95 88 82 77 74 69 65 61 57 53 50 47 46 44 41 38 35 32 29 26 23 20 18 18 18 19 20 22 23 24 26 27 29 31 33 36 38

GFSNGP_prec_cthk_084.txt.gz
RH
48 54 49 50 47 47 43 38 48 41 41 39 40 42 48 52 51 54 51 51 50 50 48 44 42 44 44 50 52 51 51 48 44 47 48 44 44 49 59 62 63 67 67 66
53 60 59 51 47 43 41 42 41 47 44 51 52 45 47 51 52 54 56 52 53 51 52 51 47 43 42 38 38 41 42 43 45 45 47 49 49 47 56 66 68 72 73 77
52 60 76 62 58 61 44 40 38 45 46 55 51 47 43 47 55 52 57 57 58 55 52 51 47 44 45 44 43 40 40 40 40 40 41 41 44 49 50 61 71 82 82 82
58 61 74 56 70 74 54 46 43 42 46 51 53 52 51 53 52 54 50 57 57 59 56 54 54 50 48 47 47 47 44 42 43 44 46 48 49 48 48 51 60 67 71 71
61 67 59 70 78 93 81 56 49 51 54 57 54 49 49 50 51 52 53 55 54 58 61 56 54 54 52 52 54 52 48 49 48 49 50 51 50 50 52 53 53 56 62 63
58 80 67 63 66 84 81 77 65 61 67 62 59 59 60 57 56 55 54 53 53 60 60 60 59 58 58 55 56 54 54 58 58 53 53 57 55 52 53 58 59 59 62 65
65 91 71 68 69 81 98 98 86 78 78 73 70 69 69 65 64 62 62 59 59 57 58 57 58 55 58 58 60 58 56 57 56 59 60 62 59 54 56 59 62 64 67 70
77 92 76 63 68 82 93 92 87 90 86 80 73 67 64 67 69 70 70 68 68 62 60 57 60 58 60 60 55 54 64 63 66 67 67 67 65 64 64 65 67 69 70 74
78 69 74 73 81 83 81 83 76 77 80 77 74 69 70 70 71 75 76 76 72 71 65 65 64 61 65 66 62 64 71 77 77 77 74 73 75 74 75 77 78 79 81 85
77 82 82 81 78 72 69 66 72 75 73 69 71 71 72 76 74 74 83 82 84 78 75 71 71 70 73 72 72 75 78 81 81 80 78 77 79 79 83 87 86 86 88 90
51 55 62 68 65 56 62 63 66 65 69 67 66 71 72 74 75 75 83 89 92 88 88 84 83 84 82 82 85 85 84 84 84 82 83 84 86 88 91 91 91 93 95 92
58 60 53 43 45 41 46 49 62 65 66 73 71 71 74 75 78 78 88 90 92 96 99 97 98 94 93 95 95 96 89 88 88 88 88 90 95 92 95 94 98 98 98 96
65 60 56 53 52 48 46 46 51 66 66 69 76 73 70 74 74 79 84 90 98 97 97 98 99 98 96 97 96 96 92 92 93 95 98 99 98 99 98 97 95 97 97 97
71 69 66 63 58 54 53 53 53 62 71 75 77 80 80 77 77 77 79 80 81 91 98 97 96 96 97 98 99 99 98 98 99 98 98 98 98 98 97 97 96 95 93 91
75 73 72 69 66 59 61 62 63 66 73 77 84 86 90 88 83 81 84 77 76 78 83 86 85 91 95 97 98 98 98 98 98 95 96 97 97 97 94 93 95 93 92 92
76 75 75 74 71 70 68 67 71 75 77 81 83 88 92 90 85 88 88 82 77 78 80 82 86 88 92 94 98 98 98 96 93 96 96 96 95 94 92 95 96 96 94 93
75 74 75 72 69 70 76 73 80 79 81 81 86 93 91 92 93 90 91 89 87 86 85 83 81 88 91 95 97 97 97 97 97 97 96 91 93 96 96 96 95 93 89 82
81 79 80 82 79 73 77 80 80 84 85 85 89 93 88 88 91 94 91 90 88 88 85 86 85 82 81 84 87 90 91 91 94 94 90 92 94 94 89 80 74 68 61 51
79 77 77 80 84 83 81 79 82 85 90 94 95 91 97 98 97 97 94 94 92 87 87 84 82 83 83 84 84 83 83 85 85 84 81 77 71 65 59 58 53 49 47 44
77 77 77 78 82 84 76 83 86 90 94 96 96 97 97 96 98 96 95 95 94 91 89 88 89 89 88 91 92 90 85 77 71 67 62 56 52 46 43 41 41 42 42 40
88 89 88 85 86 86 81 80 92 97 96 96 97 97 97 97 96 97 97 95 93 92 92 93 93 92 89 80 73 64 61 57 53 52 48 45 43 41 39 38 36 35 34 30
94 96 97 96 93 90 89 87 89 94 97 97 97 97 97 97 97 97 96 96 95 95 93 86 78 71 66 62 57 53 51 50 47 45 43 41 39 37 36 34 31 27 24 20
95 96 97 97 97 94 93 93 92 97 97 97 97 96 96 96 96 97 96 94 88 80 72 66 64 61 57 54 53 52 51 47 44 42 39 36 33 30 27 24 22 18 17 18
96 96 97 97 97 95 97 97 97 97 97 97 98 98 97 96 92 89 81 75 73 68 65 62 59 56 53 51 48 44 42 39 36 34 32 28 26 24 21 17 17 18 20 21
98 97 97 97 97 97 97 98 98 98 98 98 98 95 88 82 77 72 68 66 65 61 57 55 51 47 44 43 41 38 36 33 30 28 25 23 20 18 17 19 20 22 24 26
95 97 98 98 98 98 98 98 98 98 98 92 86 81 77 73 68 65 61 58 56 54 50 47 45 43 40 38 35 34 32 28 25 22 19 17 18 19 20 22 24 25 27 28
78 82 87 91 96 98 98 98 92 88 83 76 71 68 64 60 58 57 55 52 49 47 46 44 41 39 36 34 31 27 23 20 19 18 19 20 21 23 24 26 27 29 30 32

GFSNGP_prec_cthk_087.txt.gz
RH
31 34 53 55 55 53 44 43 47 46 50 48 42 43 56 51 55 55 54 50 48 51 51 51 50 49 51 50 49 50 50 48 50 49 47 48 50 53 53 54 56 65 71 68
51 37 32 37 44 39 42 46 45 47 43 49 50 53 52 42 47 52 55 54 51 49 54 55 53 49 51 52 52 54 52 52 55 56 52 49 45 45 48 52 55 62 67 67
58 42 60 48 41 45 48 50 49 46 42 46 49 54 54 48 46 50 55 55 56 55 51 53 54 52 51 54 53 53 54 54 54 50 52 51 51 47 44 45 48 54 63 70
68 53 51 33 54 54 56 49 45 41 46 50 53 55 59 48 50 48 50 55 53 60 57 53 54 59 56 52 52 52 51 53 51 49 48 47 49 49 50 49 46 49 59 71
74 58 42 44 53 52 56 55 68 56 50 51 50 48 53 56 48 53 54 54 55 52 57 58 54 57 60 57 56 57 51 51 54 52 51 53 55 56 58 56 51 54 57 60
70 64 64 68 60 62 66 79 89 78 66 68 59 71 73 70 52 52 54 53 51 54 53 56 62 60 64 62 64 62 63 62 63 62 61 61 62 56 55 57 58 58 59 62
69 59 63 81 66 68 75 93 85 92 84 81 65 67 73 69 66 61 58 57 55 54 58 57 57 63 64 68 70 71 68 71 70 67 67 63 63 66 63 64 66 63 61 63
68 60 67 66 70 77 87 90 90 97 90 85 76 72 63 67 68 68 67 64 60 59 57 59 60 61 71 72 72 71 64 68 71 71 70 70 71 76 74 74 72 72 72 72
59 58 90 77 83 82 80 79 81 90 90 90 84 82 79 74 75 73 68 71 73 68 68 68 66 64 65 68 71 75 74 78 78 79 77 77 79 82 84 81 75 78 83 81
90 85 89 82 88 78 70 72 71 69 77 80 77 72 74 74 71 70 71 70 77 81 83 82 78 77 75 72 70 70 74 78 75 79 78 81 89 88 93 88 83 87 85 84
68 83 86 92 90 86 74 65 64 64 68 72 78 82 72 74 71 72 78 77 80 86 87 92 88 85 83 81 80 79 79 83 83 86 89 92 93 90 90 94 92 90 91 91
80 79 71 73 74 64 59 58 50 52 58 69 65 70 72 69 71 73 76 84 87 87 94 98 97 95 94 92 89 90 90 92 94 96 98 95 97 96 97 94 93 96 98 98
68 66 61 60 57 51 49 46 44 45 49 55 61 67 70 71 74 74 74 77 83 88 98 99 99 99 98 99 99 98 98 99 98 99 98 98 98 96 98 98 98 97 98 97
72 67 64 61 60 58 56 52 50 48 48 52 66 69 73 79 79 82 78 78 77 81 87 93 95 96 97 98 98 98 98 98 98 98 98 98 98 98 98 97 97 96 97 96
75 74 74 70 67 64 62 61 57 54 58 63 63 71 74 80 81 90 89 84 84 82 82 84 89 92 94 95 93 95 96 98 97 97 97 97 98 97 97 97 96 96 96 96
74 73 73 72 71 70 66 60 61 61 64 70 71 72 77 81 83 91 91 91 88 90 89 88 84 83 84 86 92 88 94 98 97 97 97 96 97 96 96 96 96 96 96 96
75 73 73 71 70 68 66 63 64 68 68 74 76 80 81 79 82 88 92 94 93 90 89 87 87 88 89 86 89 86 88 95 97 96 96 97 97 96 96 96 96 95 90 86
72 72 73 73 72 70 70 71 69 70 74 76 84 86 86 84 82 85 86 86 91 91 89 88 86 86 84 84 83 84 83 83 87 89 92 93 92 92 90 85 78 70 61 52
68 66 67 69 72 72 72 72 76 76 76 79 83 85 88 95 88 84 84 97 93 94 94 93 92 90 88 87 87 86 86 87 89 91 91 89 84 77 70 63 60 57 54 53
71 72 73 73 73 74 72 72 75 81 82 81 84 86 88 90 92 92 95 94 96 97 97 96 93 92 91 90 89 88 86 83 79 75 70 66 60 55 52 55 55 53 52 49
77 78 79 82 85 87 86 83 80 81 84 82 85 91 94 96 96 97 96 96 96 97 95 96 95 90 85 82 76 72 67 64 64 63 62 62 60 57 55 53 51 48 44 41
82 85 87 90 93 95 97 98 95 92 89 88 89 95 97 97 97 97 97 97 97 97 94 87 82 76 72 66 64 63 60 59 60 62 62 60 56 52 48 43 41 40 38 35
88 90 92 92 95 96 97 97 96 96 95 94 91 92 96 97 97 97 97 97 91 82 77 74 70 67 63 61 60 57 55 53 51 49 48 45 43 41 37 35 36 31 28 25
91 94 95 94 95 97 98 97 97 96 96 96 96 96 97 97 97 94 88 84 77 74 70 67 66 65 61 56 54 52 49 47 46 44 40 38 38 34 32 27 25 25 22 20
87 89 94 96 97 98 97 98 98 98 98 98 97 95 93 93 85 84 78 75 70 67 64 60 57 55 54 52 48 45 44 42 39 37 35 32 30 26 25 24 22 20 20 21
81 81 82 82 88 92 96 98 99 98 98 98 94 91 86 78 73 70 67 64 60 57 56 54 51 48 45 44 43 40 39 36 33 31 29 27 25 23 21 19 19 20 22 24
79 80 80 81 83 85 86 88 88 86 84 84 83 80 73 69 65 63 60 59 57 55 52 48 46 45 43 40 37 35 33 31 28 26 23 21 20 20 20 21 23 25 26 27

GFSNGP_prec_cthk_093.txt.gz
RH
29 46 56 57 53 52 60 75 76 59 54 53 55 60 59 57 63 62 61 54 50 53 62 60 59 58 58 51 46 43 40 39 42 41 42 46 49 49 50 53 59 63 65 61
49 38 44 56 53 48 47 47 55 61 57 52 49 51 54 58 65 61 57 56 54 51 59 60 57 59 58 54 50 49 48 47 46 45 47 45 49 51 53 54 54 55 56 58
58 53 52 51 41 54 54 47 47 52 58 46 47 49 53 60 61 60 63 61 56 56 53 56 67 67 58 53 56 55 55 52 54 53 53 52 52 53 55 57 59 55 54 57
65 56 63 39 38 46 57 66 62 63 62 54 44 40 47 59 56 52 56 58 59 56 53 52 54 64 75 72 59 57 55 57 56 56 60 64 63 61 61 58 59 63 60 56
77 71 51 40 53 63 64 67 64 57 53 51 43 38 48 59 67 66 61 58 61 60 60 56 51 55 63 70 73 64 58 57 58 63 64 67 66 69 72 68 68 66 64 63
70 70 66 63 63 57 56 70 65 62 57 53 51 63 67 70 80 72 70 66 71 67 61 59 55 58 56 63 72 76 73 63 68 67 64 66 70 76 78 75 69 69 73 73
70 78 63 67 69 66 90 92 77 70 73 75 83 90 86 80 86 80 78 67 71 73 71 69 61 57 56 59 65 70 73 77 74 73 73 71 73 76 79 77 73 75 79 78
81 82 76 64 64 82 97 90 77 72 79 79 97 98 95 88 82 89 89 85 73 76 74 68 64 60 61 60 60 64 70 75 77 78 82 76 76 81 81 80 81 82 84 85
79 79 88 83 77 78 82 78 73 72 76 86 85 93 95 99 93 88 83 82 80 83 77 61 60 63 61 64 65 65 69 77 82 88 90 90 81 80 85 89 89 87 88 88
87 91 94 96 85 91 85 78 72 71 73 80 85 88 92 95 95 86 76 74 80 73 58 59 63 67 72 72 69 70 73 80 85 88 91 90 91 91 92 92 96 92 93 93
95 95 93 92 90 86 82 84 80 73 71 74 77 84 84 91 92 90 85 78 72 69 69 64 70 72 77 79 80 80 82 87 89 93 95 94 93 94 93 93 93 99 98 98
97 97 96 93 90 86 79 77 76 70 65 67 64 70 84 86 86 92 86 78 77 77 77 71 68 74 80 83 87 87 89 93 93 93 95 99 96 96 96 98 98 98 98 96
96 96 95 89 86 79 72 70 67 65 66 64 61 62 63 69 81 88 87 82 78 76 76 75 73 73 79 73 79 87 90 92 95 97 98 98 98 98 98 99 98 98 97 97
92 93 88 83 75 71 65 65 62 63 63 58 54 55 58 59 60 63 68 73 78 81 79 80 76 80 83 74 79 82 82 90 87 93 94 97 97 98 97 97 97 96 97 97
92 86 83 78 72 69 66 66 66 65 64 63 60 59 60 62 65 66 69 73 73 75 79 84 86 84 84 79 75 79 78 80 90 90 91 97 99 97 96 97 97 94 95 98
90 88 83 80 75 74 72 69 67 66 64 63 60 58 60 64 65 66 70 72 79 78 74 73 76 89 86 85 84 83 82 80 84 89 87 89 94 96 96 96 96 94 95 95
87 86 83 80 77 73 70 67 64 63 62 62 61 62 61 60 61 65 67 71 72 74 80 80 82 89 85 81 75 77 80 80 83 89 87 85 87 88 88 90 93 92 89 84
84 84 82 79 74 69 65 62 60 59 58 57 59 60 60 61 62 61 64 69 72 75 78 80 84 83 83 81 81 86 88 90 90 90 92 92 92 91 92 91 86 79 70 62
78 76 74 72 68 64 62 62 61 62 62 62 62 61 61 64 66 67 69 72 72 75 81 84 88 91 92 89 91 93 96 96 95 96 95 96 92 85 76 67 61 56 53 53
73 73 71 67 65 65 64 64 64 66 68 71 73 74 75 76 75 75 76 78 81 83 86 88 91 92 96 97 96 96 96 96 96 93 86 74 69 67 64 60 57 55 52 48
75 74 73 69 65 64 65 67 70 74 78 80 83 86 89 92 92 91 87 85 87 88 90 91 94 94 95 95 93 88 83 77 72 68 66 63 61 58 58 56 53 48 45 42
79 78 74 70 68 68 70 73 77 80 84 86 87 88 90 92 95 97 98 97 96 95 97 95 94 90 87 83 79 76 73 70 68 67 62 58 56 51 50 49 47 44 41 38
83 81 78 75 74 76 78 81 84 86 89 91 91 91 93 95 96 94 96 97 97 96 91 89 86 80 78 76 72 69 66 62 58 57 55 54 52 49 46 43 41 40 38 35
82 81 81 81 80 82 84 84 85 85 87 91 94 96 97 97 97 97 95 95 92 89 88 86 80 77 72 69 66 61 58 56 54 51 47 45 44 43 41 39 37 34 32 30
90 89 89 88 86 79 79 79 81 81 83 85 87 90 93 95 96 96 92 88 82 79 76 70 68 66 62 58 57 56 55 53 49 46 45 44 42 39 37 36 33 31 30 29
90 87 84 81 81 81 81 81 81 81 81 79 79 77 77 77 77 75 74 75 72 69 68 67 63 60 58 56 53 49 47 45 43 41 40 38 37 36 34 32 31 30 27 25
76 76 76 76 77 79 81 82 82 79 74 69 68 70 72 69 66 64 63 61 59 58 58 56 52 50 48 47 45 44 43 41 40 39 38 37 35 33 31 28 25 24 24 24

GFSNGP_prec_cthk_096.txt.gz
RH
54 54 51 57 72 72 64 66 72 68 70 68 68 68 76 78 75 78 72 62 57 64 58 57 57 59 58 55 55 51 43 37 39 40 39 42 47 54 55 57 62 67 68 65
47 43 47 50 60 65 66 64 66 64 69 79 76 73 75 69 67 67 75 71 59 59 67 64 68 67 67 65 62 60 51 46 43 42 45 45 45 49 54 55 56 58 61 65
62 59 49 45 38 55 57 76 77 73 81 83 78 74 75 72 67 71 80 77 73 72 67 67 69 75 72 76 75 70 64 58 54 52 49 51 53 51 51 54 57 57 59 59
67 57 65 50 53 52 71 84 81 79 76 73 70 72 76 68 70 72 79 81 77 71 70 68 67 67 69 71 67 74 70 66 63 62 67 64 60 58 56 57 58 61 61 60
71 72 51 52 61 71 73 85 83 89 82 76 68 65 62 66 66 73 75 79 76 72 67 69 66 65 62 59 61 71 79 73 71 73 70 72 70 67 67 66 66 68 65 66
76 71 70 71 67 62 66 82 73 68 66 64 58 58 63 65 67 71 75 77 78 76 65 64 70 65 64 58 55 58 64 73 80 75 75 72 73 76 80 78 76 71 76 74
73 78 68 68 69 67 70 78 68 68 70 72 72 74 73 76 75 82 80 80 80 74 71 70 66 63 63 61 59 57 52 60 70 78 83 84 85 86 82 82 83 87 87 87
76 77 71 63 63 66 80 85 81 85 84 80 81 75 81 92 84 83 74 73 77 76 69 66 65 67 68 67 66 60 55 52 58 69 77 84 86 90 93 91 88 86 86 89
76 73 77 78 78 77 74 78 79 77 76 75 77 79 87 93 97 94 86 81 76 72 69 70 69 65 63 64 67 63 60 59 57 60 67 74 87 93 97 95 94 94 90 88
92 91 88 91 90 83 83 83 81 80 74 69 69 76 84 88 95 97 96 90 78 71 66 61 68 68 71 70 70 68 66 64 67 67 70 74 80 89 95 97 98 97 98 98
98 98 92 90 89 87 84 78 75 76 74 65 64 66 72 82 84 93 97 92 85 80 72 65 61 62 64 69 69 68 72 75 76 77 80 81 82 85 90 94 95 94 93 94
98 97 94 93 94 89 85 81 77 70 67 63 61 63 65 69 79 86 92 96 91 85 80 78 74 70 69 64 64 70 74 79 81 83 86 87 88 91 90 95 95 98 91 97
97 98 98 97 93 85 82 80 74 68 65 64 64 64 65 65 68 72 83 89 92 91 84 79 74 72 72 68 68 66 67 74 81 85 86 85 84 87 89 96 97 96 97 96
97 95 92 92 91 83 78 76 71 69 65 67 65 65 57 59 64 69 68 66 73 79 83 82 79 78 78 73 71 72 71 70 73 79 90 86 84 85 87 86 90 92 95 96
97 94 93 89 85 82 77 73 70 68 65 64 64 63 63 61 62 62 65 68 69 68 68 68 68 69 69 70 73 71 72 70 75 75 80 80 77 82 87 91 89 92 96 95
94 92 90 86 83 82 77 70 67 65 65 65 63 63 61 59 58 59 60 61 66 66 68 73 75 75 74 71 72 73 72 71 73 72 71 79 73 75 83 91 92 95 95 97
89 89 88 85 84 81 79 72 67 65 63 62 59 58 57 59 59 59 60 61 63 65 66 68 70 74 76 74 72 74 74 75 78 75 77 81 84 81 83 85 88 90 94 92
84 83 81 79 80 81 78 71 66 63 61 60 58 56 57 57 57 58 60 60 62 64 65 67 68 71 74 76 77 79 84 83 84 86 87 91 94 94 92 92 92 84 70 62
77 75 75 76 77 74 73 71 68 64 63 63 62 62 63 63 64 65 66 66 66 67 69 72 72 73 77 78 81 84 87 88 89 94 97 96 96 95 87 79 70 63 58 54
73 73 73 73 72 72 70 68 66 65 65 64 64 66 68 70 72 74 76 76 77 77 77 77 79 81 84 84 85 87 89 93 94 97 92 86 77 70 67 63 59 57 56 54
76 74 74 75 74 74 74 72 71 68 67 68 69 72 75 78 80 83 84 86 87 89 91 92 90 88 89 91 89 92 92 88 82 76 72 68 67 67 65 60 57 54 51 48
79 78 77 77 77 78 78 78 75 72 71 73 75 78 82 85 88 88 88 88 90 91 91 92 94 95 93 90 88 84 81 80 79 75 71 68 63 59 57 56 53 51 48 46
85 84 84 84 82 82 82 81 80 80 80 81 85 87 89 91 93 94 95 96 96 95 92 88 85 84 84 81 80 79 74 70 68 64 60 59 58 57 54 50 48 47 46 44
91 89 87 86 85 85 86 86 86 86 86 86 85 85 86 89 91 93 94 96 96 95 91 88 85 81 79 77 72 69 68 66 61 58 57 54 50 48 48 47 45 43 41 40
92 93 93 93 93 92 91 89 88 86 85 85 85 85 84 83 84 85 83 82 81 77 75 77 75 72 69 68 67 66 63 60 58 57 53 49 47 46 43 42 41 40 39 37
93 91 91 90 88 85 84 85 85 86 83 80 80 80 78 78 78 76 73 71 69 65 63 61 63 65 65 62 59 57 54 50 48 47 46 45 43 42 41 40 39 38 35 32
74 74 76 78 79 81 83 84 83 78 74 71 69 69 69 66 63 63 63 62 59 56 53 52 54 54 53 52 50 49 49 47 46 45 44 43 42 40 38 36 33 29 26 24

GFSNGP_prec_cthk_102.txt.gz
RH
72 76 72 77 77 61 65 64 67 63 63 68 71 75 81 84 82 91 95 97 97 97 90 84 81 78 73 70 75 71 68 58 49 40 35 38 41 47 52 55 55 57 61 63
73 73 81 77 79 75 77 70 81 73 68 74 76 79 88 87 88 93 96 97 97 99 95 89 87 82 78 80 80 81 74 70 65 59 49 43 41 44 48 53 55 56 57 60
78 78 76 77 66 62 71 71 65 62 66 73 85 90 88 88 90 90 90 96 94 96 93 92 92 87 82 85 87 89 85 83 78 71 66 62 57 49 47 49 53 56 58 60
81 74 78 78 63 66 67 66 68 67 67 77 87 90 93 91 92 92 93 91 93 94 96 95 91 90 90 88 93 91 92 90 90 84 78 78 76 71 64 57 54 57 59 61
81 86 67 79 80 82 85 90 90 95 93 86 84 89 89 88 85 84 87 89 92 91 91 92 91 91 90 84 83 85 86 86 89 89 85 82 82 80 76 72 70 67 58 62
76 80 78 69 83 79 78 82 87 90 90 83 76 81 80 76 77 83 81 80 88 88 85 89 87 86 82 79 82 83 87 86 88 87 85 78 76 78 79 82 83 84 85 82
69 72 66 67 82 76 84 76 77 80 82 80 79 78 80 80 76 82 83 83 88 82 78 82 83 83 80 79 79 78 78 78 74 74 72 70 69 70 72 79 85 86 87 89
74 78 74 62 74 76 77 75 77 81 84 80 79 73 73 79 87 84 82 84 88 81 83 76 77 79 78 75 76 76 72 69 66 65 66 67 65 65 63 63 74 79 83 86
82 71 69 76 82 83 79 74 73 73 76 79 82 79 75 77 83 95 94 95 98 96 91 85 80 82 78 76 74 72 70 64 66 65 65 64 60 59 63 65 67 68 74 78
95 92 87 86 90 88 88 88 81 75 79 85 83 78 73 76 81 94 99 99 97 93 91 81 73 65 63 59 61 60 61 63 63 65 67 68 66 67 69 69 71 73 78 76
96 99 98 94 95 98 96 89 84 79 74 80 82 78 69 69 73 86 98 97 97 95 92 89 84 81 74 72 68 63 59 56 58 62 64 69 71 72 73 74 76 76 78 82
98 98 98 98 98 98 93 90 86 81 81 77 73 73 68 67 68 67 77 92 94 93 92 85 82 83 83 82 79 72 67 64 63 59 61 64 66 68 74 79 82 85 85 83
98 98 98 98 98 98 96 93 88 83 79 77 74 71 68 69 68 67 66 70 81 87 91 92 91 86 84 84 82 78 71 67 65 66 64 60 62 62 67 71 73 75 81 81
98 98 98 97 97 98 96 91 85 80 78 75 71 69 68 69 68 66 69 68 74 75 72 72 75 78 79 81 81 76 72 69 66 65 65 63 64 63 64 66 65 69 73 77
95 97 96 93 90 88 87 87 84 79 74 71 68 67 68 66 66 69 68 67 66 69 72 73 73 73 73 72 72 71 68 65 62 61 61 62 63 64 64 63 63 60 62 65
95 95 94 90 86 83 80 80 77 75 73 72 69 66 64 64 62 65 67 67 66 65 65 65 65 63 64 67 67 66 65 67 67 69 68 68 68 68 68 68 66 65 65 69
91 92 90 88 84 80 78 75 73 73 72 71 71 68 65 63 61 61 63 63 64 64 63 65 65 63 62 61 61 61 62 63 65 66 67 67 68 71 75 75 74 76 75 75
84 84 82 80 78 77 77 75 74 74 73 73 75 74 71 68 66 66 66 66 65 64 64 64 64 64 63 63 63 63 64 65 67 68 68 70 71 73 76 77 77 75 69 63
79 79 78 77 77 78 79 76 75 74 73 74 75 76 76 76 72 69 68 68 67 67 67 68 68 68 68 67 68 69 71 72 74 74 76 76 78 78 74 67 62 59 58 59
77 78 80 82 83 83 81 81 81 81 81 81 82 81 79 78 76 74 74 73 71 69 69 69 71 72 73 74 74 75 76 78 79 80 81 79 74 68 64 64 65 62 60 62
79 81 78 76 78 79 79 80 78 77 78 79 79 79 80 78 77 76 74 73 72 73 72 73 75 77 78 79 81 81 83 83 79 73 69 68 66 66 67 69 72 70 66 63
79 79 79 80 81 82 83 83 83 82 82 82 81 81 81 81 81 81 81 80 80 79 78 80 82 81 79 78 79 79 79 80 80 78 74 72 70 66 63 62 64 65 62 60
82 84 86 87 87 87 88 87 87 87 87 86 86 85 85 85 86 85 85 86 86 85 82 79 77 77 79 81 82 81 79 78 75 72 69 67 67 66 64 60 58 57 57 57
90 92 93 94 94 93 91 90 89 90 91 91 92 92 91 90 88 87 87 87 86 82 78 76 75 73 72 70 70 69 70 69 66 63 62 60 61 61 61 58 57 56 52 49
95 95 96 97 97 96 94 92 91 91 91 91 91 90 90 90 88 85 82 79 77 75 73 70 68 67 69 68 65 65 65 66 67 67 63 57 52 49 48 47 47 47 47 47
76 75 73 72 73 73 74 75 74 72 69 67 69 69 71 72 74 74 72 71 70 69 69 68 66 64 63 62 62 61 58 56 54 52 49 46 44 43 45 46 47 47 47 46
68 68 68 69 70 71 73 74 76 75 71 67 65 64 63 61 60 58 57 56 54 53 53 53 54 53 51 51 50 51 51 51 49 47 45 45 46 47 48 48 48 46 44 42